Weather in Yasny

Russia / Arkhangel'skaya Oblast'     64°02′13″N   44°05′21″E
temp.,
°C
wind,
m/s
gust,
m/s
humid.,
%
clouds,
%
prec.,
mm/h
press.,
hPa
HPBL,
m
6 december, mon
mon600:00−14nnw229974 0.0 102632
03:00−17nw22965 0.0 102721
06:00−17w24935 0.0 102750
09:00−15w27955 0.0 1027102
12:00−12w312925 0.0 1027261
15:00−12w312945 0.0 1028266
18:00−12wsw3119534 0.0 1028242
21:00−12wsw411945 0.0 1028236
7 december, tue
tue700:00−14wsw310955 0.0 1029174
03:00−16wsw38965 0.0 1030130
06:00−19sw23995 0.0 103046
09:00−22ssw1110046 0.0 10309
12:00−21ese1110076 0.0 103024
15:00−20ese259961 0.0 103064
18:00−17ese310925 0.0 1028164
21:00−15e4118956 0.0 1027237
8 december, wed
wed800:00−13e41387100 0.0 1025330
03:00−11e41494100 0.2 1022462
06:00−9ese41294100 0.9 1020621
09:00−9ese41194100 1.6 1018644
12:00−8ese4994100 0.8 1017611
15:00−8e389598 1.2 1017372
18:00−9e269699 0.3 1017182
21:00−11ese1198100 0.4 101739
9 december, thu
thu900:00−13sse1199100 0.1 101810
03:00−14ssw119979 0.2 101910
06:00−16sw1110083 0.1 101910
09:00−16sw119980 0.1 102024
12:00−14sw259780 0.1 1021132
15:00−16sw249974 0.1 102275
18:00−15sw269766 0.1 1023149
21:00−15sw279776 0.1 1023152
10 december, fri
fri1000:00−16wsw279991 0.0 1025134
03:00−14wsw389791 0.1 1026160
06:00−15wsw269986 0.0 102789
09:00−14wsw389870 0.0 1029124
12:00−14wsw27955 0.0 1030113
15:00−16wsw28975 0.0 1031110
18:00−16wsw269751 0.0 1032104
21:00−18wsw269850 0.0 103291